Weather History for KHWD - July, 2013

Change the Weather History Date:

Friday, July 12, 2013

  Actual Average Record
Temperature  
Mean Temperature 64 °F 65 °F  
Max Temperature 71 °F 73 °F 94 °F (1999)
Min Temperature 56 °F 57 °F 53 °F (2012)
Degree Days  
Heating Degree Days 1    
Month to date heating degree days 6  
Since 1 June heating degree days 53  
Since 1 July heating degree days 6  
Cooling Degree Days 0    
Month to date cooling degree days 42  
Year to date cooling degree days 142  
Since 1 June cooling degree days 95  
Growing Degree Days 14 (Base 50)    
Moisture  
Dew Point 53 °F    
Average Humidity 70    
Maximum Humidity 86    
Minimum Humidity 53    
Precipitation  
Precipitation 0.00 in - - ()
Month to date precipitation 0.00  
Year to date precipitation 1.49  
Since 1 July precipitation 0.00  
Sea Level Pressure  
Sea Level Pressure 29.95 in    
Wind  
Wind Speed 8 mph (WNW)    
Max Wind Speed 18 mph    
Max Gust Speed 22 mph    
Visibility 10 miles    
Events      
T = Trace of Precipitation, MM = Missing Value Source: NWS Daily Summary

Daily Weather History Graph

Daily Weather History Graph

Search for Another Location

Airport or City:

Trip Planner

Search our weather history database for the weather conditions in past years. The results will help you decide how hot, cold, wet, or windy it might be!

Date:

Astronomy

Jul. 12, 2013 Rise Set
Actual Time 5:57 AM PDT 8:30 PM PDT
Civil Twilight 5:26 AM PDT 9:01 PM PDT
Nautical Twilight 4:48 AM PDT 9:39 PM PDT
Astronomical Twilight 4:06 AM PDT 10:21 PM PDT
Moon 10:13 AM PDT (7/12) 10:50 PM PDT (7/12)
Length of Visible Light 15h 34m
Length of Day
14h 33m
Waxing Crescent, 18% of the Moon is Illuminated
Jul 12
Waxing Crescent
Jul 15
First Quarter
Jul 22
Full
Jul 29
Last Quarter
Aug 6
New

Hourly Weather History & Observations

Time (PDT) Temp. Dew Point Humidity Pressure Visibility Wind Dir Wind Speed Gust Speed Precip Events Conditions
12:54 AM 57.9 °F 52.0 °F 81% 29.96 in 10.0 mi WNW 5.8 mph - N/A   Overcast
1:54 AM 57.9 °F 53.1 °F 84% 29.96 in 10.0 mi WNW 3.5 mph - N/A   Overcast
2:54 AM 59.0 °F 53.1 °F 81% 29.96 in 10.0 mi West 6.9 mph - N/A   Overcast
3:54 AM 57.9 °F 53.1 °F 84% 29.95 in 10.0 mi WNW 5.8 mph - N/A   Overcast
4:54 AM 57.9 °F 54.0 °F 87% 29.95 in 10.0 mi Calm Calm - N/A   Overcast
5:54 AM 59.0 °F 54.0 °F 83% 29.95 in 10.0 mi SSE 5.8 mph - N/A   Overcast
6:54 AM 59.0 °F 54.0 °F 83% 29.96 in 10.0 mi West 4.6 mph - N/A   Overcast
7:54 AM 59.0 °F 53.1 °F 81% 29.97 in 10.0 mi SSW 4.6 mph - N/A   Overcast
8:54 AM 61.0 °F 55.0 °F 81% 29.98 in 10.0 mi West 5.8 mph - N/A   Overcast
9:29 AM 62.6 °F 53.6 °F 72% 29.95 in 10.0 mi Variable 5.8 mph - N/A   Scattered Clouds
9:54 AM 62.1 °F 53.1 °F 72% 29.97 in 10.0 mi Calm Calm - N/A   Clear
10:54 AM 66.0 °F 53.1 °F 63% 29.97 in 10.0 mi Variable 3.5 mph - N/A   Unknown
11:54 AM 69.1 °F 55.0 °F 61% 29.97 in 10.0 mi WNW 9.2 mph - N/A   Clear
12:54 PM 70.0 °F 54.0 °F 57% 29.96 in 10.0 mi WNW 12.7 mph - N/A   Clear
1:54 PM 70.0 °F 54.0 °F 57% 29.96 in 10.0 mi WNW 17.3 mph - N/A   Clear
2:54 PM 71.1 °F 53.1 °F 53% 29.95 in 10.0 mi WNW 15.0 mph - N/A   Clear
3:54 PM 68.0 °F 52.0 °F 56% 29.94 in 10.0 mi NW 13.8 mph - N/A   Clear
4:54 PM 68.0 °F 52.0 °F 56% 29.93 in 10.0 mi NW 15.0 mph - N/A   Clear
5:54 PM 66.9 °F 52.0 °F 59% 29.92 in 10.0 mi NW 10.4 mph - N/A   Clear
6:54 PM 64.9 °F 53.1 °F 65% 29.92 in 10.0 mi NW 10.4 mph - N/A   Clear
7:54 PM 62.1 °F 52.0 °F 70% 29.92 in 10.0 mi NW 10.4 mph - N/A   Clear
8:54 PM 59.0 °F 52.0 °F 78% 29.93 in 10.0 mi NW 8.1 mph - N/A   Clear
9:54 PM 57.0 °F 51.1 °F 81% 29.94 in 10.0 mi NW 6.9 mph - N/A   Clear
10:54 PM 57.0 °F 52.0 °F 83% 29.95 in 10.0 mi NNW 6.9 mph - N/A   Clear
11:54 PM 57.0 °F 52.0 °F 83% 29.95 in 10.0 mi North 5.8 mph - N/A   Clear